Simultaneous Nadir Overpasses (SNOs) Predictions

Prediction of SNOs between AQUA and METOP-B Satellite Orbit:

Table of predicted SNOs for the next 14.0 days since TLE Epoch: 8/14/2021
Index Date (AQUA) Time (AQUA) Lat,Lon (AQUA) SZA (AQUA ) Date (METOP-B) Time (METOP-B) Lat,Lon (METOP-B) SZA (METOP-B ) Distance(km) Time Diff (sec)
1 08/15/2021 09:01:24 73.76, 39.00 59.87 08/15/2021 09:00:59 73.75, 38.98 59.87 0.90 25
2 08/15/2021 09:50:51 -73.84,-153.54 120.04 08/15/2021 09:51:39 -73.82,-153.53 120.06 2.17 48
3 08/18/2021 03:46:01 -73.23, -61.08 119.82 08/18/2021 03:44:53 -73.18, -63.24 119.77 69.55 68
4 08/18/2021 04:35:39 73.77, 105.40 60.78 08/18/2021 04:35:21 73.79, 105.48 60.79 2.72 18
5 08/18/2021 05:25:05 -73.85, -87.12 119.13 08/18/2021 05:26:00 -73.86, -87.02 119.13 3.19 55
6 08/20/2021 23:20:21 -73.56, 4.67 118.55 08/20/2021 23:19:09 -73.47, 3.82 118.59 28.76 72
7 08/21/2021 00:09:53 73.80, 171.79 61.72 08/21/2021 00:09:43 73.77, 171.85 61.70 3.26 10
8 08/21/2021 00:59:20 -73.87, -20.72 118.20 08/21/2021 01:00:23 -73.85, -20.64 118.23 3.13 63
9 08/23/2021 18:54:38 -73.69, 70.84 117.47 08/23/2021 18:53:27 -73.71, 70.77 117.44 3.14 71
10 08/23/2021 19:44:07 73.78,-121.72 62.64 08/23/2021 19:44:06 73.76,-121.78 62.62 2.91 1
11 08/23/2021 20:33:34 -73.84, 45.79 117.29 08/23/2021 20:34:46 -73.83, 45.74 117.30 1.63 72
12 08/26/2021 14:28:53 -73.72, 137.22 116.47 08/26/2021 14:27:49 -73.74, 137.26 116.44 3.07 64
13 08/26/2021 15:18:21 73.76, -55.24 63.59 08/26/2021 15:18:28 73.79, -55.30 63.62 3.39 7



Historial Predications of SNOs between AQUA and METOP-B
